Stündliche Wetter Bolshie Kaskevichi

Heute, 21 April, Mittwoch

Zeit Temperatur Niederschläge Wind Luftdruck Luftfeuchtigkeit
00:00 +5°C° 0.1 mm 2 m/S 740 mmHg 93%
01:00 +5°C° 0.1 mm 2 m/S 740 mmHg 94%
02:00 +6°C° 0.1 mm 1 m/S 739 mmHg 94%
03:00 +6°C° 0 mm 1 m/S 739 mmHg 94%
04:00 +5°C° 0 mm 1 m/S 739 mmHg 94%
05:00 +5°C° 0 mm 1 m/S 739 mmHg 94%
06:00 +6°C° 0.1 mm 1 m/S 739 mmHg 92%
07:00 +6°C° 0.1 mm 1 m/S 739 mmHg 90%
08:00 +6°C° 0.1 mm 1 m/S 739 mmHg 88%
09:00 +6°C° 0.1 mm 1 m/S 739 mmHg 84%
10:00 +7°C° 0.1 mm 1 m/S 739 mmHg 81%
11:00 +6°C° 0.1 mm 2 m/S 739 mmHg 77%
12:00 +7°C° 0 mm 2 m/S 739 mmHg 71%
13:00 +8°C° 0 mm 2 m/S 739 mmHg 65%
14:00 +9°C° 0 mm 3 m/S 739 mmHg 59%
15:00 +9°C° 0 mm 2 m/S 739 mmHg 59%
16:00 +9°C° 0 mm 2 m/S 739 mmHg 58%
17:00 +10°C° 0 mm 2 m/S 739 mmHg 57%
18:00 +9°C° 0 mm 2 m/S 739 mmHg 63%
19:00 +7°C° 0 mm 2 m/S 739 mmHg 68%
20:00 +5°C° 0 mm 3 m/S 739 mmHg 74%
21:00 +5°C° 0 mm 3 m/S 739 mmHg 76%
22:00 +5°C° 0 mm 3 m/S 739 mmHg 78%
23:00 +5°C° 0 mm 3 m/S 739 mmHg 80%

Morgen, 22 April, Donnerstag

Zeit Temperatur Niederschläge Wind Luftdruck Luftfeuchtigkeit
00:00 +4°C° 0 mm 3 m/S 739 mmHg 84%
01:00 +4°C° 0 mm 3 m/S 739 mmHg 88%
02:00 +3°C° 0 mm 3 m/S 739 mmHg 93%
03:00 +3°C° 0 mm 3 m/S 739 mmHg 93%
04:00 +3°C° 0 mm 3 m/S 739 mmHg 93%
05:00 +3°C° 0 mm 3 m/S 739 mmHg 94%
06:00 +5°C° 0.1 mm 3 m/S 739 mmHg 88%
07:00 +7°C° 0.1 mm 3 m/S 739 mmHg 83%
08:00 +8°C° 0.1 mm 4 m/S 739 mmHg 77%
09:00 +10°C° 0.3 mm 4 m/S 739 mmHg 71%
10:00 +12°C° 0.3 mm 5 m/S 739 mmHg 65%
11:00 +13°C° 0.3 mm 5 m/S 739 mmHg 59%
12:00 +13°C° 0.3 mm 5 m/S 739 mmHg 58%
13:00 +14°C° 0.3 mm 6 m/S 739 mmHg 56%
14:00 +14°C° 0.3 mm 6 m/S 739 mmHg 54%
15:00 +13°C° 0.1 mm 5 m/S 739 mmHg 56%
16:00 +13°C° 0.1 mm 5 m/S 739 mmHg 59%
17:00 +13°C° 0.1 mm 4 m/S 739 mmHg 61%
18:00 +11°C° 0.1 mm 4 m/S 739 mmHg 68%
19:00 +10°C° 0.1 mm 3 m/S 740 mmHg 74%
20:00 +8°C° 0.1 mm 2 m/S 740 mmHg 81%
21:00 +8°C° 0.2 mm 2 m/S 740 mmHg 81%
22:00 +7°C° 0.2 mm 2 m/S 740 mmHg 81%
23:00 +7°C° 0.2 mm 2 m/S 740 mmHg 81%

übermorgen, 23 April, Freitag

Zeit Temperatur Niederschläge Wind Luftdruck Luftfeuchtigkeit
00:00 +6°C° 0.3 mm 2 m/S 740 mmHg 81%
01:00 +6°C° 0.3 mm 2 m/S 740 mmHg 81%
02:00 +5°C° 0.3 mm 2 m/S 741 mmHg 81%
03:00 +3°C° 0 mm 3 m/S 741 mmHg 82%
04:00 +3°C° 0 mm 3 m/S 741 mmHg 83%
05:00 +3°C° 0 mm 3 m/S 741 mmHg 84%
06:00 +3°C° 0 mm 3 m/S 741 mmHg 80%
07:00 +4°C° 0 mm 3 m/S 742 mmHg 76%
08:00 +4°C° 0 mm 3 m/S 742 mmHg 71%
09:00 +5°C° 0 mm 4 m/S 742 mmHg 65%
10:00 +6°C° 0 mm 4 m/S 742 mmHg 60%
11:00 +6°C° 0 mm 4 m/S 742 mmHg 54%
12:00 +7°C° 0 mm 4 m/S 742 mmHg 52%
13:00 +7°C° 0 mm 4 m/S 742 mmHg 49%
14:00 +7°C° 0 mm 4 m/S 742 mmHg 47%
15:00 +7°C° 0.1 mm 4 m/S 742 mmHg 49%
16:00 +7°C° 0.1 mm 4 m/S 742 mmHg 52%
17:00 +7°C° 0.1 mm 4 m/S 742 mmHg 54%
18:00 +7°C° 0 mm 3 m/S 742 mmHg 60%
19:00 +4°C° 0 mm 3 m/S 742 mmHg 66%
20:00 +4°C° 0 mm 2 m/S 742 mmHg 71%
21:00 +3°C° 0 mm 2 m/S 742 mmHg 74%
22:00 +3°C° 0 mm 2 m/S 742 mmHg 76%
23:00 +1°C° 0 mm 3 m/S 742 mmHg 78%

24 April, Samstag

Zeit Temperatur Niederschläge Wind Luftdruck Luftfeuchtigkeit
00:00 +1°C° 0 mm 2 m/S 741 mmHg 81%
01:00 +1°C° 0 mm 2 m/S 741 mmHg 85%
02:00 -1°C° 0 mm 2 m/S 741 mmHg 88%
03:00 -1°C° 0 mm 3 m/S 741 mmHg 90%
04:00 -1°C° 0 mm 3 m/S 741 mmHg 93%
05:00 -2°C° 0 mm 3 m/S 741 mmHg 95%
06:00 -2°C° 0 mm 4 m/S 741 mmHg 92%
07:00 -1°C° 0 mm 4 m/S 741 mmHg 88%
08:00 0°C° 0 mm 4 m/S 741 mmHg 85%
09:00 0°C° 0.2 mm 5 m/S 741 mmHg 85%
10:00 +1°C° 0.2 mm 5 m/S 741 mmHg 85%
11:00 +1°C° 0.2 mm 5 m/S 741 mmHg 86%
12:00 +1°C° 0.3 mm 5 m/S 741 mmHg 83%
13:00 +2°C° 0.3 mm 5 m/S 741 mmHg 80%
14:00 +2°C° 0.3 mm 5 m/S 741 mmHg 78%
15:00 +2°C° 0.2 mm 5 m/S 741 mmHg 75%
16:00 +2°C° 0.2 mm 5 m/S 741 mmHg 73%
17:00 +4°C° 0.2 mm 4 m/S 741 mmHg 71%
18:00 +3°C° 0 mm 4 m/S 741 mmHg 76%
19:00 +2°C° 0 mm 3 m/S 741 mmHg 81%
20:00 +2°C° 0 mm 2 m/S 741 mmHg 86%
21:00 +2°C° 0 mm 2 m/S 741 mmHg 88%
22:00 +1°C° 0 mm 2 m/S 741 mmHg 90%
23:00 +1°C° 0 mm 2 m/S 741 mmHg 92%

25 April, Sonntag

Zeit Temperatur Niederschläge Wind Luftdruck Luftfeuchtigkeit
00:00 -1°C° 0 mm 2 m/S 741 mmHg 93%
01:00 -1°C° 0 mm 2 m/S 741 mmHg 94%
02:00 -2°C° 0 mm 3 m/S 741 mmHg 95%
03:00 -2°C° 0 mm 3 m/S 741 mmHg 94%
04:00 -2°C° 0 mm 3 m/S 741 mmHg 93%
05:00 -2°C° 0 mm 3 m/S 740 mmHg 92%
06:00 -1°C° 0 mm 3 m/S 740 mmHg 84%
07:00 -1°C° 0 mm 4 m/S 741 mmHg 75%
08:00 0°C° 0 mm 4 m/S 741 mmHg 66%
09:00 +1°C° 0 mm 4 m/S 741 mmHg 60%
10:00 +3°C° 0 mm 4 m/S 741 mmHg 54%
11:00 +4°C° 0 mm 4 m/S 741 mmHg 48%
12:00 +4°C° 0.1 mm 4 m/S 741 mmHg 50%
13:00 +4°C° 0.1 mm 4 m/S 741 mmHg 52%
14:00 +5°C° 0.1 mm 4 m/S 741 mmHg 54%
15:00 +5°C° 0.2 mm 4 m/S 741 mmHg 55%
16:00 +5°C° 0.2 mm 4 m/S 741 mmHg 56%
17:00 +5°C° 0.2 mm 3 m/S 741 mmHg 56%
18:00 +3°C° 0.1 mm 3 m/S 741 mmHg 65%
19:00 +2°C° 0.1 mm 3 m/S 741 mmHg 74%
20:00 +1°C° 0.1 mm 2 m/S 741 mmHg 83%
21:00 +1°C° 0 mm 2 m/S 741 mmHg 87%
22:00 +1°C° 0 mm 2 m/S 742 mmHg 90%
23:00 -1°C° 0 mm 2 m/S 742 mmHg 94%

26 April, Montag

Zeit Temperatur Niederschläge Wind Luftdruck Luftfeuchtigkeit
00:00 -1°C° 0 mm 2 m/S 742 mmHg 94%
01:00 -1°C° 0 mm 2 m/S 742 mmHg 94%
02:00 -1°C° 0 mm 2 m/S 742 mmHg 95%
03:00 -1°C° 0 mm 2 m/S 742 mmHg 94%
04:00 -1°C° 0 mm 2 m/S 742 mmHg 94%
05:00 -1°C° 0 mm 2 m/S 742 mmHg 93%
06:00 +1°C° 0 mm 2 m/S 742 mmHg 88%
07:00 +2°C° 0 mm 2 m/S 742 mmHg 82%
08:00 +3°C° 0 mm 2 m/S 743 mmHg 76%
09:00 +4°C° 0.2 mm 2 m/S 743 mmHg 71%
10:00 +4°C° 0.2 mm 2 m/S 743 mmHg 66%
11:00 +5°C° 0.2 mm 2 m/S 743 mmHg 61%
12:00 +6°C° 0.3 mm 2 m/S 743 mmHg 60%
13:00 +6°C° 0.3 mm 2 m/S 743 mmHg 60%
14:00 +7°C° 0.3 mm 2 m/S 742 mmHg 59%
15:00 +6°C° 0.4 mm 2 m/S 742 mmHg 60%
16:00 +5°C° 0.4 mm 3 m/S 742 mmHg 61%
17:00 +5°C° 0.4 mm 3 m/S 742 mmHg 62%
18:00 +4°C° 0.2 mm 3 m/S 742 mmHg 69%
19:00 +4°C° 0.2 mm 2 m/S 742 mmHg 75%
20:00 +3°C° 0.2 mm 2 m/S 742 mmHg 82%
21:00 +2°C° 0 mm 2 m/S 742 mmHg 83%
22:00 +1°C° 0 mm 2 m/S 742 mmHg 85%
23:00 +1°C° 0 mm 2 m/S 742 mmHg 87%
Mehr zeigen

Wir brauchen deine Erlaubnis

Meteoprog und unser Service Anbieter werden persönliche Daten aufbewahren, so wie Cookies, Geräte Bezeichnung oder ähnliche Technologien von deinem Gerät und Prozess, so wie Persönliche Daten Inhalte und Werbungen, genauso wie social Media und den Verkehr zu analysieren.

  • Aufbewahrung und/oder Zugang zu deiner Geräte Informationen.

    Cookies, Geräte Bezeichnung oder andere Informationen, können aufbewahrt oder Zugang zu deinem Gerät erhalten, für den Grund, der oben angegeben wird.

  • Personalisierte Werbung und Inhalte, Messungen, Einblick in das Publikum und Produkt Entwicklung.

    Werbungen und Inhalte können personalisiert werden, basierend auf ein Profil. Mehr Daten können besser personalisierte Werbungen und Inhalte hinzufügen. Werbung und Inhalte können gezeigt und gemessen werden. Einblicke über das Publikum, welche die Werbung gesehen haben und den Inhalt, können abgeleitet werden. So wie Daten können genutzt werden, um es zu verbessern oder die Benutzer Erfahrung zu verbessern das System und die Software.

Wenn du “Ich stimme zu” klickst, erlaubst du uns, die Cookies zu benutzen die Geräte Bezeichnung, den Web oder ähnliche Technologien zu benutzen. Deine Settings, können in deinem Gerät bei deinem Browser geändert werden.

Für den bestimmten Zweck, berechtigten Interessen beruhen darauf, mehr als auf den Inhalt. Du kannst mehr darüber in unseren Privaten und Cookie Politik lesen.